Time,TemperatureF,DewpointF,PressureIn,WindDirection,WindDirectionDegrees,WindSpeedMPH,WindSpeedGustMPH,Humidity,HourlyPrecipIn,Conditions,Clouds,dailyrainin,SoftwareType,DateUTC
2013-04-05 00:00:00,67.4,66.8,29.89,South,176,0.0,0.0,98,0.00,,,0.00,Wunderground v.1.15,2013-04-05 04:00:00,
2013-04-05 00:03:00,67.4,66.8,29.89,SSW,195,0.0,0.0,98,0.00,,,0.00,Wunderground v.1.15,2013-04-05 04:03:00,
2013-04-05 00:06:00,67.4,66.8,29.89,WSW,243,0.0,2.0,98,0.00,,,0.00,Wunderground v.1.15,2013-04-05 04:06:00,
2013-04-05 00:12:00,67.6,67.0,29.89,South,169,2.0,2.0,98,0.00,,,0.00,Wunderground v.1.15,2013-04-05 04:12:00,
2013-04-05 00:17:00,67.6,67.0,29.89,SSW,205,0.0,4.0,98,0.00,,,0.00,Wunderground v.1.15,2013-04-05 04:17:00,
2013-04-05 00:22:00,67.8,67.2,29.89,SSE,163,1.0,1.0,98,0.00,,,0.00,Wunderground v.1.15,2013-04-05 04:22:00,
2013-04-05 00:28:00,67.8,67.2,29.89,SSW,212,1.0,3.0,98,0.00,,,0.00,Wunderground v.1.15,2013-04-05 04:28:00,
2013-04-05 00:33:00,67.8,67.2,29.87,WSW,240,3.0,4.0,98,0.00,,,0.00,Wunderground v.1.15,2013-04-05 04:33:00,
2013-04-05 00:39:00,67.8,67.2,29.87,SSW,211,0.0,4.0,98,0.00,,,0.00,Wunderground v.1.15,2013-04-05 04:39:00,
2013-04-05 00:44:00,67.8,67.2,29.87,SSE,160,5.0,5.0,98,0.00,,,0.00,Wunderground v.1.15,2013-04-05 04:44:00,
2013-04-05 00:49:00,67.8,67.2,29.87,SSW,204,5.0,5.0,98,0.00,,,0.00,Wunderground v.1.15,2013-04-05 04:49:00,
2013-04-05 00:55:00,67.9,67.3,29.87,SSE,165,0.0,4.0,98,0.00,,,0.00,Wunderground v.1.15,2013-04-05 04:55:00,
2013-04-05 01:01:00,67.9,67.3,29.87,SSW,192,4.0,4.0,98,0.00,,,0.00,Wunderground v.1.15,2013-04-05 05:01:00,
2013-04-05 01:07:00,67.9,67.3,29.87,SW,217,2.0,4.0,98,0.00,,,0.00,Wunderground v.1.15,2013-04-05 05:07:00,
2013-04-05 01:13:00,68.1,67.5,29.87,WSW,255,7.0,7.0,98,0.00,,,0.00,Wunderground v.1.15,2013-04-05 05:13:00,
2013-04-05 01:19:00,68.1,67.5,29.89,WSW,251,4.0,7.0,98,0.00,,,0.00,Wunderground v.1.15,2013-04-05 05:19:00,
2013-04-05 01:25:00,68.1,67.5,29.89,WSW,238,2.0,6.0,98,0.00,,,0.00,Wunderground v.1.15,2013-04-05 05:25:00,
2013-04-05 01:31:00,68.1,67.5,29.89,South,180,2.0,2.0,98,0.00,,,0.00,Wunderground v.1.15,2013-04-05 05:31:00,
2013-04-05 01:36:00,68.1,67.5,29.89,SW,229,0.0,4.0,98,0.00,,,0.01,Wunderground v.1.15,2013-04-05 05:36:00,
2013-04-05 01:42:00,68.1,67.5,29.89,WSW,243,7.0,7.0,98,0.00,,,0.01,Wunderground v.1.15,2013-04-05 05:42:00,
2013-04-05 01:47:00,68.1,67.5,29.89,WSW,249,5.0,7.0,98,0.00,,,0.01,Wunderground v.1.15,2013-04-05 05:47:00,
2013-04-05 01:53:00,68.1,67.5,29.89,SSW,205,7.0,7.0,98,0.00,,,0.01,Wunderground v.1.15,2013-04-05 05:53:00,
2013-04-05 01:58:00,68.1,67.5,29.89,WSW,241,5.0,7.0,98,0.00,,,0.01,Wunderground v.1.15,2013-04-05 05:58:00,
2013-04-05 02:03:00,68.1,67.5,29.89,WSW,250,6.0,9.0,98,0.00,,,0.01,Wunderground v.1.15,2013-04-05 06:03:00,
2013-04-05 02:08:00,67.9,67.3,29.89,WSW,244,3.0,10.0,98,0.00,,,0.01,Wunderground v.1.15,2013-04-05 06:08:00,
2013-04-05 02:13:00,67.9,67.0,29.89,WSW,243,2.0,9.0,97,0.00,,,0.01,Wunderground v.1.15,2013-04-05 06:13:00,
2013-04-05 02:18:00,67.8,66.9,29.87,WNW,290,3.0,9.0,97,0.00,,,0.01,Wunderground v.1.15,2013-04-05 06:18:00,
2013-04-05 02:23:00,67.6,66.7,29.87,West,262,6.0,11.0,97,0.00,,,0.01,Wunderground v.1.15,2013-04-05 06:23:00,
2013-04-05 02:28:00,67.4,66.2,29.87,WSW,244,4.0,11.0,96,0.00,,,0.01,Wunderground v.1.15,2013-04-05 06:28:00,
2013-04-05 02:33:00,67.4,66.2,29.87,SW,229,5.0,13.0,96,0.00,,,0.01,Wunderground v.1.15,2013-04-05 06:33:00,
2013-04-05 02:38:00,67.3,66.1,29.87,SW,236,4.0,13.0,96,0.00,,,0.01,Wunderground v.1.15,2013-04-05 06:38:00,
2013-04-05 02:43:00,67.3,65.8,29.87,SW,229,0.0,7.0,95,0.00,,,0.01,Wunderground v.1.15,2013-04-05 06:43:00,
2013-04-05 02:48:00,67.1,65.6,29.85,WSW,245,1.0,7.0,95,0.00,,,0.01,Wunderground v.1.15,2013-04-05 06:48:00,
2013-04-05 02:53:00,66.9,65.4,29.85,WSW,247,0.0,5.0,95,0.00,,,0.01,Wunderground v.1.15,2013-04-05 06:53:00,
2013-04-05 02:58:00,66.9,65.4,29.85,SW,235,0.0,7.0,95,0.00,,,0.01,Wunderground v.1.15,2013-04-05 06:58:00,
2013-04-05 03:03:00,66.8,65.0,29.84,SW,231,0.0,3.0,94,0.00,,,0.01,Wunderground v.1.15,2013-04-05 07:03:00,
2013-04-05 03:08:00,66.6,64.8,29.84,WSW,257,3.0,7.0,94,0.00,,,0.01,Wunderground v.1.15,2013-04-05 07:08:00,
2013-04-05 03:13:00,66.4,64.3,29.84,WSW,252,0.0,2.0,93,0.00,,,0.02,Wunderground v.1.15,2013-04-05 07:13:00,
2013-04-05 03:18:00,66.3,64.2,29.81,WSW,250,0.0,5.0,93,0.00,,,0.02,Wunderground v.1.15,2013-04-05 07:18:00,
2013-04-05 03:23:00,66.1,64.0,29.81,WSW,241,0.0,5.0,93,0.00,,,0.02,Wunderground v.1.15,2013-04-05 07:23:00,
2013-04-05 03:29:00,65.8,63.4,29.81,WSW,240,0.0,5.0,92,0.00,,,0.02,Wunderground v.1.15,2013-04-05 07:29:00,
2013-04-05 03:34:00,65.6,63.2,29.77,WSW,237,3.0,5.0,92,0.00,,,0.02,Wunderground v.1.15,2013-04-05 07:34:00,
2013-04-05 03:39:00,65.6,63.2,29.77,WSW,238,0.0,6.0,92,0.00,,,0.02,Wunderground v.1.15,2013-04-05 07:39:00,
2013-04-05 03:44:00,65.6,63.2,29.77,WSW,244,4.0,10.0,92,0.00,,,0.02,Wunderground v.1.15,2013-04-05 07:44:00,
2013-04-05 03:49:00,65.5,63.1,29.77,WSW,244,0.0,10.0,92,0.00,,,0.02,Wunderground v.1.15,2013-04-05 07:49:00,
2013-04-05 03:54:00,65.6,62.9,29.77,SW,222,0.0,9.0,91,0.00,,,0.02,Wunderground v.1.15,2013-04-05 07:54:00,
2013-04-05 03:59:00,65.6,62.9,29.76,WSW,245,5.0,9.0,91,0.00,,,0.02,Wunderground v.1.15,2013-04-05 07:59:00,
2013-04-05 04:04:00,65.6,62.6,29.76,WSW,239,0.0,5.0,90,0.00,,,0.02,Wunderground v.1.15,2013-04-05 08:04:00,
2013-04-05 04:09:00,65.6,62.6,29.76,WSW,240,0.0,5.0,90,0.00,,,0.02,Wunderground v.1.15,2013-04-05 08:09:00,
2013-04-05 04:14:00,65.6,62.6,29.75,WSW,248,0.0,4.0,90,0.00,,,0.02,Wunderground v.1.15,2013-04-05 08:14:00,
2013-04-05 04:19:00,65.6,62.6,29.75,SSW,203,0.0,4.0,90,0.00,,,0.02,Wunderground v.1.15,2013-04-05 08:19:00,
2013-04-05 04:24:00,65.6,62.6,29.75,SSW,209,0.0,4.0,90,0.00,,,0.02,Wunderground v.1.15,2013-04-05 08:24:00,
2013-04-05 04:29:00,65.6,62.3,29.73,SW,233,0.0,4.0,89,0.00,,,0.02,Wunderground v.1.15,2013-04-05 08:29:00,
2013-04-05 04:34:00,65.8,62.1,29.73,WSW,256,0.0,0.0,88,0.00,,,0.02,Wunderground v.1.15,2013-04-05 08:34:00,
2013-04-05 04:39:00,65.8,61.8,29.73,WNW,288,2.0,6.0,87,0.00,,,0.02,Wunderground v.1.15,2013-04-05 08:39:00,
2013-04-05 04:45:00,66.1,62.1,29.75,West,262,3.0,9.0,87,0.00,,,0.02,Wunderground v.1.15,2013-04-05 08:45:00,
2013-04-05 04:50:00,66.1,62.1,29.75,West,260,0.0,9.0,87,0.00,,,0.02,Wunderground v.1.15,2013-04-05 08:50:00,
2013-04-05 04:55:00,66.1,62.1,29.75,West,262,0.0,3.0,87,0.00,,,0.02,Wunderground v.1.15,2013-04-05 08:55:00,
2013-04-05 05:00:00,66.1,62.1,29.77,West,259,0.0,3.0,87,0.00,,,0.02,Wunderground v.1.15,2013-04-05 09:00:00,
2013-04-05 05:05:00,66.0,62.0,29.77,WSW,245,0.0,6.0,87,0.00,,,0.02,Wunderground v.1.15,2013-04-05 09:05:00,
2013-04-05 05:10:00,66.0,62.0,29.77,WSW,245,0.0,1.0,87,0.00,,,0.02,Wunderground v.1.15,2013-04-05 09:10:00,
2013-04-05 05:15:00,65.8,61.8,29.79,WSW,245,0.0,1.0,87,0.00,,,0.02,Wunderground v.1.15,2013-04-05 09:15:00,
2013-04-05 05:20:00,65.8,62.1,29.79,WSW,245,0.0,0.0,88,0.00,,,0.02,Wunderground v.1.15,2013-04-05 09:20:00,
2013-04-05 05:25:00,65.6,61.9,29.79,WSW,245,0.0,0.0,88,0.00,,,0.02,Wunderground v.1.15,2013-04-05 09:25:00,
2013-04-05 05:30:00,65.5,61.9,29.81,WSW,245,0.0,0.0,88,0.00,,,0.02,Wunderground v.1.15,2013-04-05 09:30:00,
2013-04-05 05:35:00,65.5,62.2,29.81,WSW,245,0.0,0.0,89,0.00,,,0.02,Wunderground v.1.15,2013-04-05 09:35:00,
2013-04-05 05:40:00,65.3,62.3,29.81,WSW,245,0.0,0.0,90,0.00,,,0.02,Wunderground v.1.15,2013-04-05 09:40:00,
2013-04-05 05:45:00,65.2,62.2,29.80,WSW,245,0.0,0.0,90,0.00,,,0.02,Wunderground v.1.15,2013-04-05 09:45:00,
2013-04-05 05:50:00,65.2,62.2,29.80,WSW,245,0.0,0.0,90,0.00,,,0.02,Wunderground v.1.15,2013-04-05 09:50:00,
2013-04-05 05:55:00,65.0,62.0,29.80,WSW,245,0.0,0.0,90,0.00,,,0.02,Wunderground v.1.15,2013-04-05 09:55:00,
2013-04-05 06:01:00,64.8,61.8,29.81,WSW,245,0.0,0.0,90,0.00,,,0.02,Wunderground v.1.15,2013-04-05 10:01:00,
2013-04-05 06:06:00,64.7,61.7,29.81,WSW,245,0.0,0.0,90,0.00,,,0.02,Wunderground v.1.15,2013-04-05 10:06:00,
2013-04-05 06:11:00,64.7,61.7,29.81,WSW,245,0.0,0.0,90,0.00,,,0.02,Wunderground v.1.15,2013-04-05 10:11:00,
2013-04-05 06:16:00,64.5,61.5,29.81,WSW,245,0.0,0.0,90,0.00,,,0.02,Wunderground v.1.15,2013-04-05 10:16:00,
2013-04-05 06:21:00,64.5,61.5,29.81,WSW,245,0.0,0.0,90,0.00,,,0.02,Wunderground v.1.15,2013-04-05 10:21:00,
2013-04-05 06:26:00,64.5,61.8,29.81,WSW,245,0.0,0.0,91,0.00,,,0.02,Wunderground v.1.15,2013-04-05 10:26:00,
2013-04-05 06:31:00,64.5,61.8,29.82,WSW,245,0.0,0.0,91,0.00,,,0.02,Wunderground v.1.15,2013-04-05 10:31:00,
2013-04-05 06:36:00,64.5,61.8,29.82,WSW,245,0.0,0.0,91,0.00,,,0.02,Wunderground v.1.15,2013-04-05 10:36:00,
2013-04-05 06:41:00,64.3,61.6,29.82,WSW,245,0.0,0.0,91,0.00,,,0.02,Wunderground v.1.15,2013-04-05 10:41:00,
2013-04-05 06:46:00,64.3,61.6,29.81,WSW,245,0.0,0.0,91,0.00,,,0.02,Wunderground v.1.15,2013-04-05 10:46:00,
2013-04-05 06:51:00,64.3,61.9,29.81,WSW,245,0.0,0.0,92,0.00,,,0.02,Wunderground v.1.15,2013-04-05 10:51:00,
2013-04-05 06:56:00,64.3,61.9,29.81,WSW,245,0.0,0.0,92,0.00,,,0.02,Wunderground v.1.15,2013-04-05 10:56:00,
2013-04-05 07:01:00,64.3,61.9,29.80,WSW,245,0.0,0.0,92,0.00,,,0.02,Wunderground v.1.15,2013-04-05 11:01:00,
2013-04-05 07:06:00,64.3,61.9,29.80,WSW,245,0.0,0.0,92,0.00,,,0.02,Wunderground v.1.15,2013-04-05 11:06:00,
2013-04-05 07:11:00,64.3,62.2,29.80,WSW,245,0.0,0.0,93,0.00,,,0.02,Wunderground v.1.15,2013-04-05 11:11:00,
2013-04-05 07:17:00,64.3,62.2,29.81,WSW,245,0.0,0.0,93,0.00,,,0.02,Wunderground v.1.15,2013-04-05 11:17:00,
2013-04-05 07:22:00,64.3,62.2,29.81,WSW,245,0.0,1.0,93,0.00,,,0.02,Wunderground v.1.15,2013-04-05 11:22:00,
2013-04-05 07:27:00,64.3,62.2,29.81,WSW,245,0.0,1.0,93,0.00,,,0.02,Wunderground v.1.15,2013-04-05 11:27:00,
2013-04-05 07:32:00,64.2,62.1,29.82,WSW,245,0.0,0.0,93,0.00,,,0.02,Wunderground v.1.15,2013-04-05 11:32:00,
2013-04-05 07:37:00,64.2,62.1,29.82,WSW,245,0.0,0.0,93,0.00,,,0.02,Wunderground v.1.15,2013-04-05 11:37:00,
2013-04-05 07:42:00,64.2,62.1,29.82,WSW,245,0.0,0.0,93,0.00,,,0.02,Wunderground v.1.15,2013-04-05 11:42:00,
2013-04-05 07:47:00,64.2,62.1,29.82,WSW,245,0.0,0.0,93,0.00,,,0.02,Wunderground v.1.15,2013-04-05 11:47:00,
2013-04-05 07:52:00,64.2,62.1,29.82,WSW,245,0.0,0.0,93,0.00,,,0.02,Wunderground v.1.15,2013-04-05 11:52:00,
2013-04-05 07:57:00,64.2,62.4,29.82,WSW,245,0.0,0.0,94,0.00,,,0.02,Wunderground v.1.15,2013-04-05 11:57:00,
2013-04-05 08:02:00,64.2,62.4,29.82,WSW,245,0.0,0.0,94,0.00,,,0.02,Wunderground v.1.15,2013-04-05 12:02:00,
2013-04-05 08:07:00,64.2,62.4,29.82,WSW,245,0.0,0.0,94,0.00,,,0.02,Wunderground v.1.15,2013-04-05 12:07:00,
2013-04-05 08:12:00,64.2,62.4,29.82,WSW,245,0.0,2.0,94,0.00,,,0.02,Wunderground v.1.15,2013-04-05 12:12:00,
2013-04-05 08:17:00,64.3,62.5,29.84,WSW,245,0.0,2.0,94,0.00,,,0.02,Wunderground v.1.15,2013-04-05 12:17:00,
2013-04-05 08:22:00,64.3,62.5,29.84,WSW,245,0.0,0.0,94,0.00,,,0.02,Wunderground v.1.15,2013-04-05 12:22:00,
2013-04-05 08:27:00,64.5,63.0,29.84,WSW,245,0.0,0.0,95,0.00,,,0.02,Wunderground v.1.15,2013-04-05 12:27:00,
2013-04-05 08:32:00,64.7,63.2,29.85,WSW,245,0.0,0.0,95,0.00,,,0.02,Wunderground v.1.15,2013-04-05 12:32:00,
2013-04-05 08:37:00,64.7,63.2,29.85,WSW,245,0.0,0.0,95,0.00,,,0.02,Wunderground v.1.15,2013-04-05 12:37:00,
2013-04-05 08:42:00,64.8,63.3,29.85,WSW,245,0.0,0.0,95,0.00,,,0.02,Wunderground v.1.15,2013-04-05 12:42:00,
2013-04-05 08:47:00,65.0,63.5,29.86,WSW,245,0.0,0.0,95,0.00,,,0.03,Wunderground v.1.15,2013-04-05 12:47:00,
2013-04-05 08:52:00,65.2,64.0,29.86,WSW,245,0.0,0.0,96,0.00,,,0.03,Wunderground v.1.15,2013-04-05 12:52:00,
2013-04-05 08:57:00,65.2,64.0,29.86,WSW,245,0.0,0.0,96,0.00,,,0.03,Wunderground v.1.15,2013-04-05 12:57:00,
2013-04-05 09:02:00,65.3,64.1,29.86,WSW,245,0.0,0.0,96,0.00,,,0.03,Wunderground v.1.15,2013-04-05 13:02:00,
2013-04-05 09:07:00,65.3,64.1,29.86,WSW,245,0.0,0.0,96,0.00,,,0.03,Wunderground v.1.15,2013-04-05 13:07:00,
2013-04-05 09:12:00,65.5,64.3,29.86,WSW,245,0.0,0.0,96,0.00,,,0.03,Wunderground v.1.15,2013-04-05 13:12:00,
2013-04-05 09:18:00,65.6,64.4,29.86,WSW,245,0.0,0.0,96,0.00,,,0.03,Wunderground v.1.15,2013-04-05 13:18:00,
2013-04-05 09:23:00,65.8,64.6,29.86,WSW,243,0.0,0.0,96,0.00,,,0.03,Wunderground v.1.15,2013-04-05 13:23:00,
2013-04-05 09:28:00,66.0,64.8,29.86,WSW,239,0.0,3.0,96,0.00,,,0.03,Wunderground v.1.15,2013-04-05 13:28:00,
2013-04-05 09:33:00,66.1,64.9,29.87,WSW,239,0.0,0.0,96,0.00,,,0.03,Wunderground v.1.15,2013-04-05 13:33:00,
2013-04-05 09:38:00,66.3,65.1,29.87,WSW,239,0.0,0.0,96,0.00,,,0.03,Wunderground v.1.15,2013-04-05 13:38:00,
2013-04-05 09:43:00,66.4,65.2,29.87,WSW,239,0.0,0.0,96,0.00,,,0.03,Wunderground v.1.15,2013-04-05 13:43:00,
2013-04-05 09:48:00,66.6,65.4,29.87,WSW,239,0.0,3.0,96,0.00,,,0.03,Wunderground v.1.15,2013-04-05 13:48:00,
2013-04-05 09:53:00,66.6,65.4,29.87,SSW,196,0.0,3.0,96,0.00,,,0.03,Wunderground v.1.15,2013-04-05 13:53:00,
2013-04-05 09:58:00,66.6,65.4,29.87,SSW,204,0.0,3.0,96,0.00,,,0.03,Wunderground v.1.15,2013-04-05 13:58:00,
2013-04-05 10:03:00,66.6,65.4,29.86,SW,227,0.0,3.0,96,0.00,,,0.03,Wunderground v.1.15,2013-04-05 14:03:00,
2013-04-05 10:08:00,66.8,65.6,29.86,SW,215,2.0,6.0,96,0.00,,,0.04,Wunderground v.1.15,2013-04-05 14:08:00,
2013-04-05 10:13:00,66.8,65.6,29.86,SSW,204,0.0,2.0,96,0.00,,,0.04,Wunderground v.1.15,2013-04-05 14:13:00,
2013-04-05 10:18:00,66.8,65.6,29.87,SSE,153,0.0,3.0,96,0.00,,,0.04,Wunderground v.1.15,2013-04-05 14:18:00,
2013-04-05 10:23:00,66.8,65.6,29.87,SSW,195,1.0,4.0,96,0.00,,,0.04,Wunderground v.1.15,2013-04-05 14:23:00,
2013-04-05 10:28:00,66.6,65.4,29.87,SSE,148,1.0,4.0,96,0.00,,,0.04,Wunderground v.1.15,2013-04-05 14:28:00,
2013-04-05 10:33:00,66.6,65.4,29.87,South,169,0.0,3.0,96,0.00,,,0.05,Wunderground v.1.15,2013-04-05 14:33:00,
2013-04-05 10:39:00,66.6,65.4,29.87,South,186,0.0,4.0,96,0.44,,,0.06,Wunderground v.1.15,2013-04-05 14:39:00,
2013-04-05 10:44:00,66.6,65.4,29.87,SSW,203,0.0,0.0,96,0.12,,,0.07,Wunderground v.1.15,2013-04-05 14:44:00,
2013-04-05 10:49:00,66.6,65.4,29.87,SSW,205,0.0,2.0,96,0.09,,,0.08,Wunderground v.1.15,2013-04-05 14:49:00,
2013-04-05 10:54:00,66.6,65.7,29.87,SSW,205,0.0,0.0,97,0.17,,,0.10,Wunderground v.1.15,2013-04-05 14:54:00,
2013-04-05 10:59:00,66.6,65.7,29.87,SSW,205,0.0,0.0,97,0.17,,,0.12,Wunderground v.1.15,2013-04-05 14:59:00,
2013-04-05 11:04:00,66.8,65.9,29.86,WSW,237,4.0,4.0,97,0.10,,,0.13,Wunderground v.1.15,2013-04-05 15:04:00,
2013-04-05 11:09:00,66.8,65.9,29.86,SW,235,2.0,4.0,97,0.13,,,0.14,Wunderground v.1.15,2013-04-05 15:09:00,
2013-04-05 11:14:00,66.8,66.2,29.86,SW,224,0.0,1.0,98,0.06,,,0.14,Wunderground v.1.15,2013-04-05 15:14:00,
2013-04-05 11:19:00,66.9,66.3,29.86,SW,226,0.0,1.0,98,0.05,,,0.15,Wunderground v.1.15,2013-04-05 15:19:00,
2013-04-05 11:24:00,66.9,66.3,29.86,SW,229,0.0,8.0,98,0.05,,,0.15,Wunderground v.1.15,2013-04-05 15:24:00,
2013-04-05 11:29:00,66.9,66.3,29.86,WSW,240,3.0,8.0,98,0.05,,,0.15,Wunderground v.1.15,2013-04-05 15:29:00,
2013-04-05 11:35:00,66.9,66.3,29.86,WSW,238,1.0,5.0,98,0.00,,,0.15,Wunderground v.1.15,2013-04-05 15:35:00,
2013-04-05 11:40:00,66.8,66.2,29.86,SW,235,3.0,3.0,98,0.00,,,0.15,Wunderground v.1.15,2013-04-05 15:40:00,
2013-04-05 11:45:00,66.8,66.2,29.85,WSW,253,2.0,7.0,98,0.00,,,0.15,Wunderground v.1.15,2013-04-05 15:45:00,
2013-04-05 11:50:00,66.8,66.2,29.85,WSW,241,0.0,2.0,98,0.00,,,0.15,Wunderground v.1.15,2013-04-05 15:50:00,
2013-04-05 11:55:00,66.8,66.2,29.85,SW,233,0.0,4.0,98,0.00,,,0.15,Wunderground v.1.15,2013-04-05 15:55:00,
2013-04-05 12:00:00,66.9,66.3,29.85,SW,233,0.0,0.0,98,0.00,,,0.15,Wunderground v.1.15,2013-04-05 16:00:00,
2013-04-05 12:05:00,66.9,66.3,29.85,SW,236,3.0,4.0,98,0.00,,,0.15,Wunderground v.1.15,2013-04-05 16:05:00,
2013-04-05 12:10:00,67.1,66.5,29.85,WSW,238,0.0,0.0,98,0.00,,,0.15,Wunderground v.1.15,2013-04-05 16:10:00,
2013-04-05 12:15:00,67.3,66.7,29.84,WSW,238,0.0,0.0,98,0.00,,,0.15,Wunderground v.1.15,2013-04-05 16:15:00,
2013-04-05 12:20:00,67.4,66.8,29.84,WSW,239,0.0,0.0,98,0.00,,,0.15,Wunderground v.1.15,2013-04-05 16:20:00,
2013-04-05 12:25:00,67.6,67.0,29.84,West,265,0.0,2.0,98,0.00,,,0.15,Wunderground v.1.15,2013-04-05 16:25:00,
2013-04-05 12:30:00,67.8,67.2,29.83,West,273,0.0,0.0,98,0.00,,,0.15,Wunderground v.1.15,2013-04-05 16:30:00,
2013-04-05 12:35:00,67.9,67.3,29.83,WSW,240,0.0,3.0,98,0.00,,,0.15,Wunderground v.1.15,2013-04-05 16:35:00,
2013-04-05 12:40:00,68.3,68.0,29.83,West,259,3.0,3.0,99,0.00,,,0.15,Wunderground v.1.15,2013-04-05 16:40:00,
2013-04-05 12:45:00,68.6,68.3,29.83,WSW,240,0.0,5.0,99,0.00,,,0.15,Wunderground v.1.15,2013-04-05 16:45:00,
2013-04-05 12:50:00,68.8,68.2,29.83,West,259,0.0,2.0,98,0.00,,,0.15,Wunderground v.1.15,2013-04-05 16:50:00,
2013-04-05 12:55:00,69.1,68.5,29.83,West,261,0.0,2.0,98,0.00,,,0.15,Wunderground v.1.15,2013-04-05 16:55:00,
2013-04-05 13:00:00,69.6,69.0,29.83,WSW,248,0.0,0.0,98,0.00,,,0.15,Wunderground v.1.15,2013-04-05 17:00:00,
2013-04-05 13:05:00,69.9,69.3,29.83,SW,236,0.0,4.0,98,0.00,,,0.15,Wunderground v.1.15,2013-04-05 17:05:00,
2013-04-05 13:10:00,70.4,69.8,29.83,SW,235,1.0,4.0,98,0.00,,,0.15,Wunderground v.1.15,2013-04-05 17:10:00,
2013-04-05 13:15:00,70.8,69.9,29.82,West,266,7.0,7.0,97,0.00,,,0.15,Wunderground v.1.15,2013-04-05 17:15:00,
2013-04-05 13:20:00,70.9,69.7,29.82,SW,231,5.0,6.0,96,0.00,,,0.15,Wunderground v.1.15,2013-04-05 17:20:00,
2013-04-05 13:26:00,71.1,69.6,29.82,WSW,245,0.0,7.0,95,0.00,,,0.15,Wunderground v.1.15,2013-04-05 17:26:00,
2013-04-05 13:31:00,71.3,69.8,29.81,SW,231,0.0,3.0,95,0.00,,,0.15,Wunderground v.1.15,2013-04-05 17:31:00,
2013-04-05 13:36:00,71.3,69.2,29.81,SW,234,1.0,9.0,93,0.00,,,0.15,Wunderground v.1.15,2013-04-05 17:36:00,
2013-04-05 13:41:00,71.6,69.5,29.81,South,189,1.0,2.0,93,0.00,,,0.15,Wunderground v.1.15,2013-04-05 17:41:00,
2013-04-05 13:46:00,71.6,69.2,29.81,SW,236,1.0,6.0,92,0.00,,,0.15,Wunderground v.1.15,2013-04-05 17:46:00,
2013-04-05 13:51:00,71.8,69.7,29.81,West,262,0.0,1.0,93,0.00,,,0.15,Wunderground v.1.15,2013-04-05 17:51:00,
2013-04-05 13:57:00,72.0,69.5,29.81,WSW,252,3.0,4.0,92,0.00,,,0.15,Wunderground v.1.15,2013-04-05 17:57:00,
2013-04-05 14:02:00,72.0,69.5,29.80,SSW,195,0.0,0.0,92,0.00,,,0.15,Wunderground v.1.15,2013-04-05 18:02:00,
2013-04-05 14:07:00,72.0,69.5,29.80,SSW,209,0.0,5.0,92,0.00,,,0.15,Wunderground v.1.15,2013-04-05 18:07:00,
2013-04-05 14:12:00,72.3,69.8,29.80,WSW,245,0.0,2.0,92,0.00,,,0.15,Wunderground v.1.15,2013-04-05 18:12:00,
2013-04-05 14:17:00,72.8,69.7,29.79,SSE,160,0.0,7.0,90,0.00,,,0.15,Wunderground v.1.15,2013-04-05 18:17:00,
2013-04-05 14:22:00,73.0,69.6,29.79,WSW,250,0.0,5.0,89,0.00,,,0.15,Wunderground v.1.15,2013-04-05 18:22:00,
2013-04-05 14:27:00,72.8,69.0,29.79,South,191,3.0,6.0,88,0.00,,,0.15,Wunderground v.1.15,2013-04-05 18:27:00,
2013-04-05 14:32:00,72.7,68.9,29.78,WSW,248,0.0,1.0,88,0.00,,,0.15,Wunderground v.1.15,2013-04-05 18:32:00,
2013-04-05 14:37:00,72.8,69.0,29.78,WSW,239,0.0,1.0,88,0.00,,,0.15,Wunderground v.1.15,2013-04-05 18:37:00,
2013-04-05 14:42:00,73.2,69.4,29.78,SW,235,7.0,7.0,88,0.00,,,0.15,Wunderground v.1.15,2013-04-05 18:42:00,
2013-04-05 14:47:00,73.5,69.4,29.77,WSW,241,0.0,7.0,87,0.00,,,0.15,Wunderground v.1.15,2013-04-05 18:47:00,
2013-04-05 14:52:00,73.7,69.2,29.77,South,184,0.0,5.0,86,0.00,,,0.15,Wunderground v.1.15,2013-04-05 18:52:00,
2013-04-05 14:57:00,73.7,69.2,29.77,SW,234,0.0,5.0,86,0.00,,,0.15,Wunderground v.1.15,2013-04-05 18:57:00,
2013-04-05 15:02:00,73.9,68.4,29.78,SSW,208,1.0,5.0,83,0.00,,,0.15,Wunderground v.1.15,2013-04-05 19:02:00,
2013-04-05 15:07:00,73.9,68.4,29.78,WSW,239,0.0,5.0,83,0.00,,,0.15,Wunderground v.1.15,2013-04-05 19:07:00,
2013-04-05 15:12:00,74.0,68.5,29.78,WSW,248,0.0,4.0,83,0.00,,,0.15,Wunderground v.1.15,2013-04-05 19:12:00,
2013-04-05 15:17:00,74.0,68.9,29.77,SW,236,0.0,5.0,84,0.00,,,0.15,Wunderground v.1.15,2013-04-05 19:17:00,
2013-04-05 15:22:00,74.0,68.5,29.77,SW,219,0.0,8.0,83,0.00,,,0.15,Wunderground v.1.15,2013-04-05 19:22:00,
2013-04-05 15:27:00,73.9,68.4,29.77,SSW,210,0.0,8.0,83,0.00,,,0.15,Wunderground v.1.15,2013-04-05 19:27:00,
2013-04-05 15:32:00,73.7,68.2,29.76,South,173,0.0,0.0,83,0.00,,,0.15,Wunderground v.1.15,2013-04-05 19:32:00,
2013-04-05 15:37:00,73.5,68.0,29.76,SW,215,0.0,5.0,83,0.00,,,0.15,Wunderground v.1.15,2013-04-05 19:37:00,
2013-04-05 15:42:00,73.2,68.8,29.76,SSW,194,0.0,1.0,86,0.00,,,0.15,Wunderground v.1.15,2013-04-05 19:42:00,
2013-04-05 15:47:00,73.2,69.1,29.77,SW,221,5.0,5.0,87,0.00,,,0.15,Wunderground v.1.15,2013-04-05 19:47:00,
2013-04-05 15:52:00,73.0,69.6,29.77,South,186,0.0,0.0,89,0.42,,,0.17,Wunderground v.1.15,2013-04-05 19:52:00,
2013-04-05 15:57:00,72.7,69.3,29.77,South,169,0.0,7.0,89,0.61,,,0.19,Wunderground v.1.15,2013-04-05 19:57:00,
2013-04-05 16:02:00,72.3,69.5,29.76,South,170,0.0,1.0,91,0.25,,,0.22,Wunderground v.1.15,2013-04-05 20:02:00,
2013-04-05 16:07:00,72.0,69.2,29.76,SW,235,3.0,4.0,91,0.51,,,0.26,Wunderground v.1.15,2013-04-05 20:07:00,
2013-04-05 16:12:00,71.6,69.2,29.76,SW,234,0.0,0.0,92,0.48,,,0.31,Wunderground v.1.15,2013-04-05 20:12:00,
2013-04-05 16:17:00,71.5,69.1,29.76,SW,234,0.0,0.0,92,0.11,,,0.31,Wunderground v.1.15,2013-04-05 20:17:00,
2013-04-05 16:22:00,71.3,69.2,29.76,SW,231,0.0,1.0,93,0.06,,,0.31,Wunderground v.1.15,2013-04-05 20:22:00,
2013-04-05 16:27:00,71.3,69.5,29.76,SW,214,0.0,1.0,94,0.04,,,0.31,Wunderground v.1.15,2013-04-05 20:27:00,
2013-04-05 16:32:00,71.5,70.0,29.75,SW,215,0.0,0.0,95,0.00,,,0.31,Wunderground v.1.15,2013-04-05 20:32:00,
2013-04-05 16:37:00,71.8,70.3,29.75,SW,215,0.0,0.0,95,0.00,,,0.31,Wunderground v.1.15,2013-04-05 20:37:00,
2013-04-05 16:42:00,71.8,70.3,29.75,SW,215,0.0,0.0,95,0.00,,,0.31,Wunderground v.1.15,2013-04-05 20:42:00,
2013-04-05 16:47:00,72.0,70.5,29.75,SW,224,0.0,0.0,95,0.00,,,0.31,Wunderground v.1.15,2013-04-05 20:47:00,
2013-04-05 16:52:00,72.1,70.9,29.75,SW,220,0.0,0.0,96,0.00,,,0.31,Wunderground v.1.15,2013-04-05 20:52:00,
2013-04-05 16:57:00,72.3,71.1,29.75,SW,222,0.0,0.0,96,0.00,,,0.31,Wunderground v.1.15,2013-04-05 20:57:00,
2013-04-05 17:03:00,73.0,71.8,29.74,SW,222,0.0,0.0,96,0.00,,,0.31,Wunderground v.1.15,2013-04-05 21:03:00,
2013-04-05 17:08:00,73.7,72.5,29.74,SW,223,0.0,0.0,96,0.00,,,0.31,Wunderground v.1.15,2013-04-05 21:08:00,
2013-04-05 17:13:00,73.7,72.2,29.74,WSW,241,0.0,0.0,95,0.00,,,0.31,Wunderground v.1.15,2013-04-05 21:13:00,
2013-04-05 17:18:00,73.3,71.5,29.74,SW,233,0.0,1.0,94,0.00,,,0.31,Wunderground v.1.15,2013-04-05 21:18:00,
2013-04-05 17:23:00,73.2,71.4,29.74,WSW,243,0.0,0.0,94,0.00,,,0.31,Wunderground v.1.15,2013-04-05 21:23:00,
2013-04-05 17:28:00,73.2,71.4,29.74,WSW,238,4.0,5.0,94,0.00,,,0.31,Wunderground v.1.15,2013-04-05 21:28:00,
2013-04-05 17:33:00,72.7,69.9,29.74,WNW,284,5.0,11.0,91,0.00,,,0.31,Wunderground v.1.15,2013-04-05 21:33:00,
2013-04-05 17:38:00,72.1,68.3,29.74,West,271,3.0,11.0,88,0.00,,,0.31,Wunderground v.1.15,2013-04-05 21:38:00,
2013-04-05 17:43:00,72.0,67.6,29.74,WNW,295,0.0,13.0,86,0.00,,,0.31,Wunderground v.1.15,2013-04-05 21:43:00,
2013-04-05 17:48:00,72.0,67.9,29.75,WNW,298,0.0,13.0,87,0.00,,,0.31,Wunderground v.1.15,2013-04-05 21:48:00,
2013-04-05 17:53:00,71.8,67.7,29.75,NNW,333,7.0,7.0,87,0.00,,,0.31,Wunderground v.1.15,2013-04-05 21:53:00,
2013-04-05 17:58:00,71.8,67.0,29.75,NNW,335,3.0,9.0,85,0.00,,,0.31,Wunderground v.1.15,2013-04-05 21:58:00,
2013-04-05 18:03:00,71.6,66.8,29.76,North,350,5.0,7.0,85,0.00,,,0.31,Wunderground v.1.15,2013-04-05 22:03:00,
2013-04-05 18:08:00,71.8,67.0,29.76,WNW,290,0.0,7.0,85,0.00,,,0.31,Wunderground v.1.15,2013-04-05 22:08:00,
2013-04-05 18:13:00,71.6,66.8,29.76,NNW,330,0.0,6.0,85,0.00,,,0.31,Wunderground v.1.15,2013-04-05 22:13:00,
2013-04-05 18:18:00,71.6,66.8,29.77,NW,315,0.0,6.0,85,0.00,,,0.31,Wunderground v.1.15,2013-04-05 22:18:00,
2013-04-05 18:23:00,71.3,65.2,29.77,NW,309,7.0,11.0,81,0.00,,,0.31,Wunderground v.1.15,2013-04-05 22:23:00,
2013-04-05 18:28:00,71.1,64.3,29.77,WNW,284,3.0,12.0,79,0.00,,,0.31,Wunderground v.1.15,2013-04-05 22:28:00,
2013-04-05 18:33:00,70.9,64.1,29.77,West,279,1.0,5.0,79,0.00,,,0.31,Wunderground v.1.15,2013-04-05 22:33:00,
2013-04-05 18:38:00,70.8,64.0,29.77,NNW,340,4.0,6.0,79,0.00,,,0.31,Wunderground v.1.15,2013-04-05 22:38:00,
2013-04-05 18:43:00,70.6,63.4,29.77,West,261,0.0,7.0,78,0.00,,,0.31,Wunderground v.1.15,2013-04-05 22:43:00,
2013-04-05 18:48:00,70.4,62.8,29.77,NNW,339,2.0,7.0,77,0.00,,,0.31,Wunderground v.1.15,2013-04-05 22:48:00,
2013-04-05 18:53:00,70.3,63.1,29.77,NNW,347,4.0,4.0,78,0.00,,,0.31,Wunderground v.1.15,2013-04-05 22:53:00,
2013-04-05 18:58:00,70.3,64.5,29.77,NNE,25,3.0,12.0,82,0.00,,,0.31,Wunderground v.1.15,2013-04-05 22:58:00,
2013-04-05 19:04:00,69.6,64.5,29.78,NNW,346,7.0,9.0,84,0.00,,,0.31,Wunderground v.1.15,2013-04-05 23:04:00,
2013-04-05 19:09:00,69.1,64.4,29.78,NNE,19,2.0,10.0,85,0.00,,,0.31,Wunderground v.1.15,2013-04-05 23:09:00,
2013-04-05 19:14:00,68.4,64.0,29.78,North,8,4.0,10.0,86,0.00,,,0.31,Wunderground v.1.15,2013-04-05 23:14:00,
2013-04-05 19:19:00,67.9,63.9,29.78,North,4,1.0,10.0,87,0.00,,,0.31,Wunderground v.1.15,2013-04-05 23:19:00,
2013-04-05 19:24:00,67.4,63.4,29.78,North,354,6.0,10.0,87,0.00,,,0.31,Wunderground v.1.15,2013-04-05 23:24:00,
2013-04-05 19:29:00,67.1,63.7,29.79,NNW,344,5.0,13.0,89,0.00,,,0.31,Wunderground v.1.15,2013-04-05 23:29:00,
2013-04-05 19:34:00,66.8,63.5,29.79,North,349,3.0,9.0,89,0.00,,,0.31,Wunderground v.1.15,2013-04-05 23:34:00,
2013-04-05 19:39:00,66.6,63.3,29.79,NNW,338,3.0,13.0,89,0.00,,,0.31,Wunderground v.1.15,2013-04-05 23:39:00,
2013-04-05 19:44:00,66.3,63.3,29.80,NNE,16,0.0,13.0,90,0.00,,,0.31,Wunderground v.1.15,2013-04-05 23:44:00,
2013-04-05 19:49:00,66.3,63.3,29.80,NNW,328,0.0,13.0,90,0.00,,,0.31,Wunderground v.1.15,2013-04-05 23:49:00,
2013-04-05 19:54:00,66.0,63.0,29.80,NNE,13,9.0,10.0,90,0.00,,,0.31,Wunderground v.1.15,2013-04-05 23:54:00,
2013-04-05 19:59:00,65.8,62.8,29.80,North,354,6.0,10.0,90,0.00,,,0.31,Wunderground v.1.15,2013-04-05 23:59:00,
2013-04-05 20:04:00,65.6,62.6,29.80,North,1,9.0,16.0,90,0.00,,,0.31,Wunderground v.1.15,2013-04-06 00:04:00,
2013-04-05 20:09:00,65.8,63.1,29.80,North,4,0.0,16.0,91,0.00,,,0.31,Wunderground v.1.15,2013-04-06 00:09:00,
2013-04-05 20:14:00,65.6,62.9,29.81,North,2,6.0,11.0,91,0.00,,,0.31,Wunderground v.1.15,2013-04-06 00:14:00,
2013-04-05 20:19:00,65.6,62.9,29.81,North,2,2.0,13.0,91,0.00,,,0.31,Wunderground v.1.15,2013-04-06 00:19:00,
2013-04-05 20:24:00,65.5,62.8,29.81,North,359,0.0,12.0,91,0.00,,,0.31,Wunderground v.1.15,2013-04-06 00:24:00,
2013-04-05 20:29:00,65.5,62.5,29.82,North,349,5.0,12.0,90,0.00,,,0.31,Wunderground v.1.15,2013-04-06 00:29:00,
2013-04-05 20:34:00,65.2,62.2,29.82,North,359,2.0,10.0,90,0.00,,,0.31,Wunderground v.1.15,2013-04-06 00:34:00,
2013-04-05 20:39:00,65.2,62.2,29.82,NW,315,6.0,11.0,90,0.00,,,0.31,Wunderground v.1.15,2013-04-06 00:39:00,
2013-04-05 20:44:00,65.2,62.2,29.83,North,354,5.0,14.0,90,0.00,,,0.31,Wunderground v.1.15,2013-04-06 00:44:00,
2013-04-05 20:50:00,65.2,62.2,29.83,North,3,3.0,14.0,90,0.00,,,0.31,Wunderground v.1.15,2013-04-06 00:50:00,
2013-04-05 20:55:00,65.0,62.3,29.83,North,353,5.0,12.0,91,0.00,,,0.31,Wunderground v.1.15,2013-04-06 00:55:00,
2013-04-05 21:00:00,65.0,62.0,29.83,North,6,2.0,5.0,90,0.00,,,0.31,Wunderground v.1.15,2013-04-06 01:00:00,
2013-04-05 21:05:00,64.8,61.8,29.83,North,349,7.0,12.0,90,0.00,,,0.31,Wunderground v.1.15,2013-04-06 01:05:00,
2013-04-05 21:10:00,64.8,61.8,29.83,North,359,0.0,4.0,90,0.00,,,0.31,Wunderground v.1.15,2013-04-06 01:10:00,
2013-04-05 21:15:00,64.8,61.8,29.84,North,1,2.0,11.0,90,0.00,,,0.31,Wunderground v.1.15,2013-04-06 01:15:00,
2013-04-05 21:20:00,64.8,61.8,29.84,North,0,5.0,7.0,90,0.00,,,0.31,Wunderground v.1.15,2013-04-06 01:20:00,
2013-04-05 21:25:00,64.8,61.5,29.84,North,0,3.0,11.0,89,0.00,,,0.31,Wunderground v.1.15,2013-04-06 01:25:00,
2013-04-05 21:30:00,64.7,61.4,29.86,NNW,342,5.0,7.0,89,0.00,,,0.31,Wunderground v.1.15,2013-04-06 01:30:00,
2013-04-05 21:35:00,65.0,61.7,29.86,North,359,12.0,15.0,89,0.00,,,0.31,Wunderground v.1.15,2013-04-06 01:35:00,
2013-04-05 21:40:00,64.8,61.2,29.86,North,4,2.0,5.0,88,0.00,,,0.31,Wunderground v.1.15,2013-04-06 01:40:00,
2013-04-05 21:45:00,64.8,61.2,29.87,NNW,327,5.0,13.0,88,0.00,,,0.31,Wunderground v.1.15,2013-04-06 01:45:00,
2013-04-05 21:50:00,65.0,61.4,29.87,ENE,75,4.0,6.0,88,0.00,,,0.31,Wunderground v.1.15,2013-04-06 01:50:00,
2013-04-05 21:55:00,64.8,61.2,29.87,NW,320,6.0,13.0,88,0.00,,,0.31,Wunderground v.1.15,2013-04-06 01:55:00,
2013-04-05 22:00:00,65.0,61.0,29.87,North,1,6.0,12.0,87,0.00,,,0.31,Wunderground v.1.15,2013-04-06 02:00:00,
2013-04-05 22:05:00,64.7,60.7,29.87,NW,317,6.0,12.0,87,0.00,,,0.31,Wunderground v.1.15,2013-04-06 02:05:00,
2013-04-05 22:10:00,64.7,60.7,29.87,North,352,4.0,7.0,87,0.00,,,0.31,Wunderground v.1.15,2013-04-06 02:10:00,
2013-04-05 22:15:00,64.8,60.8,29.88,North,4,2.0,13.0,87,0.00,,,0.31,Wunderground v.1.15,2013-04-06 02:15:00,
2013-04-05 22:20:00,64.7,60.4,29.88,NNE,14,4.0,13.0,86,0.00,,,0.31,Wunderground v.1.15,2013-04-06 02:20:00,
2013-04-05 22:25:00,64.7,60.4,29.88,North,0,3.0,13.0,86,0.00,,,0.31,Wunderground v.1.15,2013-04-06 02:25:00,
2013-04-05 22:30:00,64.5,60.2,29.88,North,349,6.0,8.0,86,0.00,,,0.31,Wunderground v.1.15,2013-04-06 02:30:00,
2013-04-05 22:35:00,64.5,60.2,29.88,North,359,3.0,13.0,86,0.00,,,0.31,Wunderground v.1.15,2013-04-06 02:35:00,
2013-04-05 22:40:00,64.5,60.2,29.88,North,1,9.0,9.0,86,0.00,,,0.31,Wunderground v.1.15,2013-04-06 02:40:00,
2013-04-05 22:45:00,64.3,60.0,29.89,North,352,3.0,11.0,86,0.00,,,0.31,Wunderground v.1.15,2013-04-06 02:45:00,
2013-04-05 22:50:00,64.3,60.0,29.89,North,9,12.0,12.0,86,0.00,,,0.31,Wunderground v.1.15,2013-04-06 02:50:00,
2013-04-05 22:55:00,64.2,59.9,29.89,NE,37,1.0,19.0,86,0.00,,,0.31,Wunderground v.1.15,2013-04-06 02:55:00,
2013-04-05 23:00:00,63.9,59.6,29.89,NNW,348,3.0,4.0,86,0.00,,,0.31,Wunderground v.1.15,2013-04-06 03:00:00,
2013-04-05 23:06:00,63.9,59.6,29.89,North,357,3.0,15.0,86,0.00,,,0.31,Wunderground v.1.15,2013-04-06 03:06:00,
2013-04-05 23:11:00,63.7,59.4,29.89,North,349,4.0,12.0,86,0.00,,,0.31,Wunderground v.1.15,2013-04-06 03:11:00,
2013-04-05 23:16:00,63.7,59.4,29.89,North,1,2.0,14.0,86,0.00,,,0.31,Wunderground v.1.15,2013-04-06 03:16:00,
2013-04-05 23:21:00,63.7,59.4,29.89,NNW,338,7.0,11.0,86,0.00,,,0.31,Wunderground v.1.15,2013-04-06 03:21:00,
2013-04-05 23:26:00,63.4,59.1,29.89,WNW,302,8.0,16.0,86,0.00,,,0.31,Wunderground v.1.15,2013-04-06 03:26:00,
2013-04-05 23:31:00,63.4,59.5,29.90,NNE,18,4.0,7.0,87,0.00,,,0.31,Wunderground v.1.15,2013-04-06 03:31:00,
2013-04-05 23:36:00,63.4,59.1,29.90,North,0,7.0,15.0,86,0.00,,,0.31,Wunderground v.1.15,2013-04-06 03:36:00,
2013-04-05 23:41:00,63.4,59.1,29.90,NNW,333,0.0,11.0,86,0.00,,,0.31,Wunderground v.1.15,2013-04-06 03:41:00,
2013-04-05 23:46:00,63.4,59.1,29.90,NNW,340,4.0,13.0,86,0.00,,,0.31,Wunderground v.1.15,2013-04-06 03:46:00,
2013-04-05 23:52:00,63.2,58.9,29.90,NNW,329,2.0,15.0,86,0.00,,,0.31,Wunderground v.1.15,2013-04-06 03:52:00,
2013-04-05 23:57:00,63.2,58.9,29.90,NNW,343,10.0,15.0,86,0.00,,,0.31,Wunderground v.1.15,2013-04-06 03:57:00,